YO8KGT-13 Weather Reports


Display with metric or nautical units.
time (UTC)temp
F
wind
direction
speed
MPH
gust
MPH
rain 1hr
in
rain 24hr
in
rain mn
in
humidity
%
barometer
mb
20260506214925 59 248 2.0 2.0 0.00 0.00 0.00 55 943.0
20260506214427 59 248 0.0 0.0 0.00 0.00 0.00 54 943.0
20260506212931 60 248 0.0 2.0 0.00 0.00 0.00 54 943.0
20260506211926 60 248 1.0 2.0 0.00 0.00 0.00 53 942.0
20260506211431 60 248 2.0 2.0 0.00 0.00 0.00 53 942.0
20260506210928 60 248 0.0 0.0 0.00 0.00 0.00 52 942.0
20260506210426 60 248 0.0 0.0 0.00 0.00 0.00 52 942.0
20260506205433 61 248 0.0 0.0 0.00 0.00 0.00 52 942.0
20260506203438 61 248 0.0 1.0 0.00 0.00 0.00 50 942.0
20260506202927 61 248 0.0 1.0 0.00 0.00 0.00 49 942.0
20260506202427 62 248 1.0 1.0 0.00 0.00 0.00 49 942.0
20260506200926 62 248 0.0 2.0 0.00 0.00 0.00 48 942.0
20260506200446 63 248 0.0 1.0 0.00 0.00 0.00 48 942.0
20260506194929 63 248 4.0 4.0 0.00 0.00 0.00 47 942.0
20260506194427 64 248 0.0 2.0 0.00 0.00 0.00 47 942.0
20260506193446 64 248 1.0 1.0 0.00 0.00 0.00 46 942.0
20260506191426 64 248 2.0 3.0 0.00 0.00 0.00 44 942.0
20260506190929 65 248 2.0 2.0 0.00 0.00 0.00 44 942.0
20260506190425 65 248 2.0 3.0 0.00 0.00 0.00 44 942.0
20260506185926 65 248 0.0 3.0 0.00 0.00 0.00 43 942.0
20260506184937 66 248 0.0 2.0 0.00 0.00 0.00 42 942.0
20260506184427 66 248 1.0 3.0 0.00 0.00 0.00 42 942.0
20260506181927 67 225 2.0 4.0 0.00 0.00 0.00 39 941.0
20260506181425 68 225 1.0 4.0 0.00 0.00 0.00 39 942.0
20260506180926 68 225 4.0 4.0 0.00 0.00 0.00 38 941.0
20260506180427 68 202 1.0 4.0 0.00 0.00 0.00 38 941.0
20260506175926 68 248 3.0 4.0 0.00 0.00 0.00 38 941.0
20260506175426 68 248 2.0 4.0 0.00 0.00 0.00 37 941.0
20260506173926 69 248 4.0 4.0 0.00 0.00 0.00 36 941.0
20260506173426 70 0 0.0 3.0 0.00 0.00 0.00 36 941.0
20260506172943 70 248 0.0 3.0 0.00 0.00 0.00 35 941.0
20260506172439 70 135 3.0 4.0 0.00 0.00 0.00 35 941.0
20260506170426 72 68 0.0 5.0 0.00 0.00 0.00 34 941.0
20260506165426 72 202 0.0 2.0 0.00 0.00 0.00 33 941.0
20260506164926 73 0 0.0 2.0 0.00 0.00 0.00 32 941.0
20260506163930 74 22 0.0 2.0 0.00 0.00 0.00 31 941.0
20260506163428 74 135 2.0 2.0 0.00 0.00 0.00 31 941.0
20260506161926 75 90 0.0 4.0 0.00 0.00 0.00 29 941.0
20260506161425 75 90 2.0 2.0 0.00 0.00 0.00 29 941.0
20260506160927 76 248 2.0 3.0 0.00 0.00 0.00 29 941.0
20260506155427 76 90 2.0 4.0 0.00 0.00 0.00 28 941.0
20260506153426 78 270 2.0 2.0 0.00 0.00 0.00 28 941.0
20260506152926 78 315 1.0 4.0 0.00 0.00 0.00 28 941.0
20260506152427 78 292 0.0 5.0 0.00 0.00 0.00 27 941.0
20260506150927 80 292 2.0 5.0 0.00 0.00 0.00 26 941.0
20260506150425 80 315 0.0 3.0 0.00 0.00 0.00 26 941.0
20260506144429 81 90 0.0 2.0 0.00 0.00 0.00 26 941.0
20260506142926 82 270 0.0 5.0 0.00 0.00 0.00 25 941.0
20260506142426 82 248 1.0 5.0 0.00 0.00 0.00 25 941.0
20260506141928 83 225 3.0 5.0 0.00 0.00 0.00 25 941.0
20260506141435 83 112 4.0 4.0 0.00 0.00 0.00 25 941.0
20260506140926 84 68 2.0 4.0 0.00 0.00 0.00 25 941.0
20260506135925 85 0 0.0 4.0 0.00 0.00 0.00 23 941.0
20260506135445 85 135 0.0 3.0 0.00 0.00 0.00 23 941.0
20260506134926 85 0 1.0 3.0 0.00 0.00 0.00 23 941.0
20260506134426 86 338 0.0 4.0 0.00 0.00 0.00 23 941.0
20260506131431 88 22 0.0 5.0 0.00 0.00 0.00 22 941.0
20260506130936 88 248 2.0 5.0 0.00 0.00 0.00 22 941.0
20260506130427 88 0 0.0 3.0 0.00 0.00 0.00 22 941.0
20260506124428 89 248 2.0 3.0 0.00 0.00 0.00 21 941.0
20260506123927 90 0 3.0 7.0 0.00 0.00 0.00 21 941.0
20260506123427 90 248 2.0 7.0 0.00 0.00 0.00 21 941.0
20260506122425 90 270 0.0 5.0 0.00 0.00 0.00 21 941.0
20260506121425 90 90 2.0 3.0 0.00 0.00 0.00 21 941.0
20260506120926 91 90 3.0 3.0 0.00 0.00 0.00 21 942.0
20260506120433 91 270 0.0 3.0 0.00 0.00 0.00 21 941.0
20260506115926 91 270 0.0 10.0 0.00 0.00 0.00 21 942.0
20260506114943 91 292 1.0 10.0 0.00 0.00 0.00 21 942.0
20260506114439 91 270 1.0 6.0 0.00 0.00 0.00 21 942.0
20260506113925 91 90 3.0 6.0 0.00 0.00 0.00 21 942.0
20260506113426 91 68 2.0 4.0 0.00 0.00 0.00 22 942.0
20260506112425 92 90 1.0 2.0 0.00 0.00 0.00 22 942.0
20260506111425 92 0 0.0 2.0 0.00 0.00 0.00 22 942.0
20260506110925 92 338 0.0 2.0 0.00 0.00 0.00 22 942.0
20260506110432 92 338 0.0 2.0 0.00 0.00 0.00 22 942.0
20260506105933 92 22 2.0 2.0 0.00 0.00 0.00 23 942.0
20260506104010 92 45 3.0 4.0 0.00 0.00 0.00 24 942.0
20260506103430 92 270 3.0 4.0 0.00 0.00 0.00 24 942.0
20260506100924 90 90 0.0 3.0 0.00 0.00 0.00 25 943.0
20260506095937 89 338 2.0 4.0 0.00 0.00 0.00 25 943.0
20260506095500 89 338 0.0 3.0 0.00 0.00 0.00 26 943.0
20260506094929 88 0 0.0 3.0 0.00 0.00 0.00 26 943.0
20260506094425 88 292 0.0 3.0 0.00 0.00 0.00 26 943.0
20260506093428 87 158 0.0 3.0 0.00 0.00 0.00 27 943.0
20260506092927 86 0 0.0 3.0 0.00 0.00 0.00 28 943.0
20260506092425 85 270 2.0 3.0 0.00 0.00 0.00 29 943.0
20260506090950 84 270 1.0 3.0 0.00 0.00 0.00 30 943.0
20260506090425 83 248 3.0 3.0 0.00 0.00 0.00 30 943.0
20260506085926 83 315 0.0 2.0 0.00 0.00 0.00 30 943.0
20260506083926 82 338 0.0 2.0 0.00 0.00 0.00 32 943.0
20260506083436 82 315 0.0 2.0 0.00 0.00 0.00 32 943.0
20260506082925 81 315 0.0 2.0 0.00 0.00 0.00 33 943.0
20260506082439 81 338 0.0 2.0 0.00 0.00 0.00 34 943.0
20260506081925 80 270 0.0 2.0 0.00 0.00 0.00 35 943.0
20260506080925 80 0 0.0 0.0 0.00 0.00 0.00 37 943.0
20260506080426 80 22 0.0 0.0 0.00 0.00 0.00 37 943.0
20260506061926 66 338 0.0 0.0 0.00 0.00 0.00 54 944.0
20260506061425 64 0 0.0 0.0 0.00 0.00 0.00 55 943.0
20260506050445 56 248 0.0 1.0 0.00 0.00 0.00 61 943.0
20260506044925 55 248 0.0 0.0 0.00 0.00 0.00 61 943.0
20260506043427 55 248 0.0 0.0 0.00 0.00 0.00 61 943.0
20260506041430 55 248 0.0 0.0 0.00 0.00 0.00 61 943.0
20260506040924 54 248 0.0 0.0 0.00 0.00 0.00 61 943.0
20260506035933 53 248 0.0 0.0 0.00 0.00 0.00 61 943.0
20260506035426 53 248 0.0 0.0 0.00 0.00 0.00 61 943.0
20260506034425 52 248 0.0 0.0 0.00 0.00 0.00 62 943.0
20260506031430 50 248 0.0 0.0 0.00 0.00 0.00 62 943.0
20260506030931 50 248 0.0 0.0 0.00 0.00 0.00 62 943.0
20260506030425 50 248 0.0 0.0 0.00 0.00 0.00 62 943.0
20260506024925 50 248 0.0 0.0 0.00 0.00 0.00 61 943.0
20260506024429 50 248 0.0 0.0 0.00 0.00 0.00 61 943.0
20260506023925 50 248 0.0 0.0 0.00 0.00 0.00 61 943.0
20260506015425 51 248 0.0 0.0 0.00 0.00 0.00 60 943.0
20260506014931 51 248 0.0 0.0 0.00 0.00 0.00 59 943.0
20260506014425 51 248 0.0 0.0 0.00 0.00 0.00 59 943.0
20260506012426 52 248 0.0 0.0 0.00 0.00 0.00 58 943.0
20260506011428 52 248 0.0 0.0 0.00 0.00 0.00 57 943.0
20260506010428 52 248 0.0 0.0 0.00 0.00 0.00 57 943.0
20260506005924 53 248 0.0 0.0 0.00 0.00 0.00 57 943.0
20260506005426 53 248 0.0 0.0 0.00 0.00 0.00 57 943.0
20260506004928 53 0 0.0 0.0 0.00 0.00 0.00 57 943.0
20260506004432 53 248 0.0 0.0 0.00 0.00 0.00 56 942.0
20260506003924 53 248 0.0 0.0 0.00 0.00 0.00 56 943.0
20260506003426 54 248 0.0 2.0 0.00 0.00 0.00 56 943.0
20260506002438 54 248 0.0 2.0 0.00 0.00 0.00 55 942.0
20260506001925 54 248 0.0 0.0 0.00 0.00 0.00 55 943.0
20260506001426 54 248 0.0 0.0 0.00 0.00 0.00 55 943.0
20260506000924 54 248 0.0 0.0 0.00 0.00 0.00 55 943.0
20260506000426 55 248 0.0 1.0 0.00 0.00 0.00 55 942.0
20260505235924 55 248 0.0 1.0 0.00 0.00 0.00 55 943.0
20260505234427 55 248 0.0 0.0 0.00 0.00 0.00 55 942.0
20260505233426 55 248 0.0 3.0 0.00 0.00 0.00 56 943.0
20260505232924 55 248 0.0 3.0 0.00 0.00 0.00 56 942.0
20260505232440 55 248 0.0 3.0 0.00 0.00 0.00 55 942.0
20260505231941 55 248 2.0 3.0 0.00 0.00 0.00 55 942.0
20260505230925 55 0 0.0 3.0 0.00 0.00 0.00 54 942.0
20260505225926 55 270 0.0 4.0 0.00 0.00 0.00 54 942.0
20260505225426 55 270 1.0 4.0 0.00 0.00 0.00 53 942.0
20260505224928 55 270 2.0 4.0 0.00 0.00 0.00 53 942.0
20260505224425 55 292 3.0 3.0 0.00 0.00 0.00 52 943.0
20260505223934 55 292 3.0 3.0 0.00 0.00 0.00 52 942.0
20260505223432 55 292 2.0 2.0 0.00 0.00 0.00 51 943.0
20260505222928 56 292 0.0 2.0 0.00 0.00 0.00 51 942.0
20260505221946 56 292 0.0 3.0 0.00 0.00 0.00 50 942.0
20260505221502 56 292 2.0 3.0 0.00 0.00 0.00 50 942.0
20260505220429 56 292 0.0 2.0 0.00 0.00 0.00 49 943.0